Погода Столб Остров

Погода Столб Остров : погода сейчас, прогноз погоды и архив. Всё, что Вы хотите узнать о погоде Столб Остров!

Поиск расширенной информации на нашем сайте:

Другие новости

Новости СМИ2

Главная страница сайта

Новости сайта

03.07.2017

Напоминаем, что на нашем специализированном сайте Метеоцентр.Азия вы можете получить высокодетализированные автоматические прогнозы погоды по пунктам России, СНГ и мира в авиационном формате (включающие направление и скорость ветра, видимость, явления погоды, количество и форму облачности, нижнюю и верхнюю границу облачности).


Погода Столб Остров - сегодня

Время (UTC), дата Ветер
(°,м/с) 
Видим.   Явления Облачность Т
(°С)
Тd
(°С)
f(%) Тe
(°С)
Pmin
(гПа)
dP
(гПа)
Po
(мм)
O2
(г/м3)
Тmin Tmax R s Состояние
почвы
06 19.04.18 360 (С) 20000 м    5/0 верхняя 
[Ci fib]
-12.8 -15.5 80 -13  1006.6  -0.1  753  320           
09 19.04.18 180 (Ю) 20000 м    3/0 верхняя 
[Ci fib]
-12 -14.7 80 -12  1006.6  753  319           
12 19.04.18 120 (ЮВ) 20000 м    ясно 
-15 -16.3 90 -19  1007  0.4  753  323    -9.9       
15 19.04.18 190 (Ю) 20000 м    ясно 
-15.1 -15.7 95 -15  1007.2  0.2  753  323           
18 19.04.18 150 (ЮВ) 20000 м    ясно 
-16.1 -16.7 95 -20  1007.6  0.4  754  324           
00 20.04.18 090 (В) 20000 м    3/0 верхняя 
[Ci fib]
-12.8 -14.1 90 -16  1008.8  0.1  755  320  -16.8      11  неравномерный
сухой снег
100% 
03 20.04.18 270 (З) 20000 м    ясно 
-9.9 -11.9 85 -10  1009.6  0.8  755  317           
06 20.04.18 170 (Ю) 20000 м    ясно 
-4.3 -7.7 77 -9  1010.8  1.3  756  310           
09 20.04.18 170 (Ю) 20000 м    ясно 
-3.4 -7.3 74 -8  1012.2  1.4  757  310           
12 20.04.18 140 (ЮВ) 20000 м    8/0 средняя 
[Ac trans]
-4.4 -7.5 79 -8  1013.5  1.3  758  311    -3.1       
15 20.04.18 140 (ЮВ) 20000 м    1/1 300 м 
[Sc]
-5.6 -8.6 79 -9  1014.2  0.7  759  313           
18 20.04.18 170 (Ю) 20000 м    8/0 средняя 
[Ac trans]
-6.3 -9 81 -11  1014.2  759  314           
21 20.04.18 тихо ()   20000 м    8/0 
-6.4 -9.2 80 -6  1014.2  759  314           
00 21.04.18 180 (Ю) 20000 м    10/0 средняя 
[Ac As]
-5.3 -7.1 87 -9  1014.7  -0.5  759  313  -6.3      10  неравномерный
сухой снег
100% 
03 21.04.18 тихо ()   20000 м    8/0 средняя, верхняя 
[Ac trans|Ci fib]
-2.6 -3.9 91 -3  1015  0.3  759  309           
06 21.04.18 тихо ()   20000 м    8/0 средняя, верхняя 
[Ac trans|Ci fib]
-5.4 -7.2 87 -5    759  313           
09 21.04.18 170 (Ю) 20000 м    10/0 верхняя 
[Cs]
-4.6 -6.6 86 -8  1014.9  -0.1  759  312           
12 21.04.18 180 (Ю) 20000 м    8/0 средняя, верхняя 
[Ac trans|Ci fib]
-7.7 -9.9 84 -12  1024.7  -0.2  759  316    -2.6       
15 21.04.18 170 (Ю) 20000 м  позёмок  6/0 средняя, верхняя 
[Ac trans|Ci fib]
-9.9 -11.6 87 -16  1014.6  -0.2  759  318           
00 22.04.18 170 (Ю) 20000 м  позёмок  ясно 
-8.4 -11.7 77 -15  1013  0.2  758  316  -10.6      неравномерный
сухой снег
100% 
03 22.04.18 140 (ЮВ) 8{11}  20000 м  позёмок  ясно 
-6.7 -10 77 -12  1011.8  -1.1  757  314           
06 22.04.18 120 (ЮВ) 9{12}  20000 м  позёмок  ясно 
-4.6 -8.1 76 -10  1009  -2.8  755  310           
09 22.04.18 120 (ЮВ) 10{13}  20000 м  позёмок  ясно 
-5.1 -8 80 -11  1005.8  -3.2  752  310           
00 23.04.18 240 (ЮЗ) 10-12{14}  20000 м  позёмок{снег}  8/0 верхняя 
[Ci fib]
-13 -14.3 90 -21  1000.1  2.6  748  318  -13    0.8  неравномерный
сухой снег
100% 
09 23.04.18 070 (В) 10 км  слаб. снег  10/0 средняя 
[Ac As]
-10.5 -12.5 85 -14  999.8  -1.1  748  315           
Время (UTC), дата Ветер
(°,м/с) 
Видим.   Явления Облачность Т
(°С)
Тd
(°С)
f(%) Тe
(°С)
Pmin
(гПа)
dP
(гПа)
Po
(мм)
O2
(г/м3)
Тmin Tmax R s Состояние
почвы

Для получения пояснительной информации подведите курсор к названию столбца.

ПОГОДА Столб Остров - архив

Всё, что Вы хотите узнать о погоде Столб Остров - удобно и подробно!

Выберите нужную дату (начиная с 1 января 2015* года) и нажмите кнопку "Найти".
Будут отображены архивные сводки погоды по пункту Столб Остров, начиная с указанной даты.


Отображать данные в формате CSV (для использования в таблицах Excel)


Внимание! Наш архив погоды предназначен исключительно для личного некоммерческого использования в познавательных целях. Если Вам необходимы официальные справки о состоянии погоды (для производственных, юридических, коммерческих и т.п. целей), обращайтесь в органы Росгидромета.

*Примечание: данная дата относится к архиву по метеостанциям СССР (Россия, СНГ, Балтия).
Архив по метеостанциям Зарубежной Европы и Азии (кроме Китая) хранится 10 дней, по другим регионам земного шара (Китай, Африка, Америка, Австралия, Океания) - 1 день.

Столб Остров - район местоположения метеостанции


Название, широта, долгота, высота метеостанции:
Столб Остров 72.4°ш. 126.5°д. 26 м над ур. моря [Российская Федерация]

Дополнительная информация

В oтличие oт бoльшинства пoгoдных сайтoв мы публикуем пoдрoбную метеoинфoрмацию в детальнoм прoфессиoнальнoм фoрмате.

Характеристики температуры и влажнoсти вoздуха измеряются на высoте 2 м в тени вдали oт зданий и деревьев.
Скoрoсть ветра измеряется на высoте 10 м (на урoвне рoста челoвека скoрoсть ветра ниже в 1.5-2 раза). Если метеoстанция нахoдится в гoрoде или в лесу, тo скoрoсть ветра занижена на 2-4 м/с пo сравнению с oткрытым местoм. Скoрoсть ветра над акватoриями крупных рек и oзёр, а также на вершинах хoлмoв на 2-5 м/с выше, чем в oбычных услoвиях.
Атмoсфернoе давление в разных тoчках местнoсти мoжет значительнo oтличаться oт давления на метеoстанции, в зависимoсти oт услoвий рельефа (при пoдъёме на 10 м давление пoнижается примернo на 1 мм рт.ст.).